Regional Weather Roundup
Issued by NWS

Home | Current Version | Previous Version | Text Only | Print | Product List | Glossary On
Versions: 1 2 3 4 5 6 7 8 9 10 11 12 13 14 15 16 17 18 19 20 21 22 23 24 25 26 27
000
ASCA42 TJSJ 302110
RWRPR
PUERTO RICO/U.S. VIRGIN ISLANDS HOURLY WEATHER ROUNDUP
NATIONAL WEATHER SERVICE SAN JUAN PR
500 PM AST SUN APR 30 2017

PRZ001>002-007>008-010-302200-
PUERTO RICO

CITY           SKY/WX    TMP DP  RH WIND       PRES   REMARKS
SAN JUAN LMM   PTSUNNY   81  73  78 E17       30.01S
AGUADILLA      CLOUDY    77  70  78 E16       30.02F
CEIBA          PTSUNNY   79  73  83 NE13G20   30.03S
$$

VIZ001>002-302200-
U.S. VIRGIN ISLANDS

CITY           SKY/WX    TMP DP  RH WIND       PRES   REMARKS
CHARLOTTE AMA  PTSUNNY   77  72  83 E14       30.00F
CHRISTIANSTED  PTSUNNY   81  70  69 E16       30.00F
$$

HOURLY WEATHER ROUNDUP FOR THE NEWS MEDIA

CITY           SKY/WX    TMP DP  RH WIND       PRES   REMARKS
ORLANDO        PTSUNNY   85  69  58 SE21      30.06F
NEW YORK       CLOUDY    54  41  61 E21       30.23S
NEWARK         CLOUDY    55  39  54 SE9       30.21F
CHICAGO        DRIZZLE   45  42  89 NE18      29.78F
HARTFORD       CLOUDY    49  36  61 SE7       30.27F
BOSTON         CLOUDY    46  36  68 SE10      30.27F
DALLAS         MOSUNNY   68  32  26 NW23G43   29.78S
PHILADELPHIA   CLOUDY    71  50  47 E15       30.11S
LOS ANGELES    SUNNY     73  51  46 W14       30.05F
WASHINGTON DC  PTSUNNY   86  66  51 S15G23    30.00F



USA.gov is the U.S. government's official web portal to all federal, state and local government web resources and services.